Weather History for Stuart, FL

Change the Weather History Date:

Wednesday, November 21, 2012

  Actual Average Record
Temperature  
Mean Temperature 65 °F -  
Max Temperature 71 °F 78 °F 90 °F (1948)
Min Temperature 59 °F 62 °F 37 °F (2000)
Growing Degree Days 15 (Base 50)    
Moisture  
Dew Point 55 °F    
Average Humidity 80    
Maximum Humidity 94    
Minimum Humidity 52    
Precipitation  
Precipitation 0.00 in - - ()
Sea Level Pressure  
Sea Level Pressure 30.01 in    
Wind  
Wind Speed 8 mph (NNW)    
Max Wind Speed 16 mph    
Max Gust Speed 28 mph    
Visibility 10 miles    
Events      
Averages and records for this station are not official NWS values.
T = Trace of Precipitation, MM = Missing Value Source: NWS Daily Summary

Daily Weather History Graph

Daily Weather History Graph

Search for Another Location

Airport:

Trip Planner

Search our weather history database for the weather conditions in past years. The results will help you decide how hot, cold, wet, or windy it might be!

Date:

Astronomy

Nov. 21, 2012 Rise Set
Actual Time 6:46 AM EST 5:27 PM EST
Civil Twilight 6:21 AM EST 5:52 PM EST
Nautical Twilight 5:52 AM EST 6:20 PM EST
Astronomical Twilight 5:24 AM EST 6:48 PM EST
Moon 1:13 PM EST (11/21) 12:36 AM EST (11/21)
Length of Visible Light 11h 31m
Length of Day
10h 41m
First Quarter, 61% of the Moon is Illuminated
Nov 21
First Quarter
Nov 28
Full
Dec 6
Last Quarter
Dec 13
New
Dec 20
First Quarter

Hourly Weather History & Observations

Time (EST) Temp. Dew Point Humidity Pressure Visibility Wind Dir Wind Speed Gust Speed Precip Events Conditions
12:15 AM 60.8 °F 57.2 °F 88% 30.00 in 10.0 mi NW 4.6 mph - N/A   Scattered Clouds
12:35 AM 60.8 °F 57.2 °F 88% 29.99 in 10.0 mi NW 6.9 mph - N/A   Mostly Cloudy
12:55 AM 60.8 °F 57.2 °F 88% 29.99 in 10.0 mi NW 5.8 mph - N/A   Mostly Cloudy
1:15 AM 60.8 °F 57.2 °F 88% 29.98 in 10.0 mi NW 5.8 mph - N/A   Scattered Clouds
1:35 AM 60.8 °F 57.2 °F 88% 29.98 in 10.0 mi NW 8.1 mph - N/A   Clear
1:55 AM 60.8 °F 57.2 °F 88% 29.98 in 10.0 mi NW 6.9 mph - N/A   Clear
2:15 AM 60.8 °F 57.2 °F 88% 29.98 in 10.0 mi NW 6.9 mph - N/A   Clear
2:35 AM 59.0 °F 55.4 °F 88% 29.97 in 10.0 mi NW 6.9 mph - N/A   Clear
2:55 AM 59.0 °F 57.2 °F 94% 29.97 in 10.0 mi NW 8.1 mph - N/A   Clear
3:15 AM 60.8 °F 57.2 °F 88% 29.96 in 10.0 mi NW 8.1 mph - N/A   Clear
3:35 AM 59.0 °F 57.2 °F 94% 29.97 in 10.0 mi NW 8.1 mph - N/A   Clear
3:55 AM 60.8 °F 57.2 °F 88% 29.97 in 10.0 mi NW 6.9 mph - N/A   Clear
4:15 AM 60.8 °F 57.2 °F 88% 29.97 in 10.0 mi NW 6.9 mph - N/A   Clear
4:35 AM 59.0 °F 55.4 °F 88% 29.97 in 10.0 mi NW 8.1 mph - N/A   Clear
4:55 AM 59.0 °F 55.4 °F 88% 29.97 in 10.0 mi NW 6.9 mph - N/A   Clear
5:15 AM 59.0 °F 55.4 °F 88% 29.98 in 10.0 mi NW 6.9 mph - N/A   Clear
6:47 AM 59.0 °F 57.2 °F 94% 30.00 in 6.0 mi NW 9.2 mph - N/A   Partly Cloudy
7:47 AM 60.8 °F 57.2 °F 88% 30.01 in 10.0 mi NW 11.5 mph - N/A   Partly Cloudy
8:47 AM 66.2 °F 59.0 °F 78% 30.01 in 10.0 mi NNW 9.2 mph - N/A   Partly Cloudy
9:47 AM 68.0 °F 59.0 °F 73% 30.03 in 10.0 mi NNW 13.8 mph - N/A   Partly Cloudy
10:47 AM 71.6 °F 59.0 °F 64% 30.02 in 10.0 mi North 13.8 mph 23.0 mph N/A   Partly Cloudy
2:47 PM 69.8 °F 55.4 °F 60% 29.97 in 10.0 mi North 16.1 mph 27.6 mph N/A   Mostly Cloudy
3:47 PM 68.0 °F 51.8 °F 56% 29.97 in 10.0 mi North 16.1 mph 24.2 mph N/A   Mostly Cloudy
4:47 PM 68.0 °F 50.0 °F 52% 29.98 in 10.0 mi North 11.5 mph 20.7 mph N/A   Scattered Clouds
5:55 PM 66.2 °F 55.4 °F 68% 30.00 in 10.0 mi North 11.5 mph 18.4 mph N/A   Partly Cloudy
6:55 PM 64.4 °F 55.4 °F 73% 30.02 in 10.0 mi NNW 11.5 mph 18.4 mph N/A   Partly Cloudy
7:15 PM 64.4 °F 55.4 °F 73% 30.02 in 10.0 mi NNW 10.4 mph 23.0 mph N/A   Clear
7:35 PM 62.6 °F 53.6 °F 72% 30.02 in 10.0 mi NNW 10.4 mph 16.1 mph N/A   Clear
7:55 PM 62.6 °F 53.6 °F 72% 30.03 in 10.0 mi NNW 6.9 mph - N/A   Clear
8:15 PM 62.6 °F 53.6 °F 72% 30.03 in 10.0 mi North 9.2 mph 18.4 mph N/A   Clear
8:35 PM 62.6 °F 55.4 °F 77% 30.04 in 10.0 mi North 9.2 mph - N/A   Clear
8:55 PM 62.6 °F 55.4 °F 77% 30.04 in 10.0 mi NNW 11.5 mph - N/A   Clear
9:15 PM 62.6 °F 55.4 °F 77% 30.05 in 10.0 mi NNW 9.2 mph - N/A   Clear
9:35 PM 62.6 °F 55.4 °F 77% 30.05 in 10.0 mi NNW 5.8 mph - N/A   Clear
9:55 PM 60.8 °F 53.6 °F 77% 30.05 in 10.0 mi NW 8.1 mph - N/A   Clear
10:15 PM 60.8 °F 53.6 °F 77% 30.05 in 10.0 mi NW 5.8 mph - N/A   Clear
10:35 PM 60.8 °F 53.6 °F 77% 30.05 in 10.0 mi NW 8.1 mph - N/A   Clear
10:55 PM 59.0 °F 53.6 °F 82% 30.05 in 10.0 mi NW 6.9 mph - N/A   Clear
11:15 PM 59.0 °F 53.6 °F 82% 30.05 in 10.0 mi NW 8.1 mph - N/A   Clear
11:35 PM 59.0 °F 51.8 °F 77% 30.05 in 10.0 mi NW 9.2 mph - N/A   Clear
11:55 PM 60.8 °F 50.0 °F 68% 30.05 in 10.0 mi NW 9.2 mph - N/A   Clear